Vertical_Velocity
2 1 0 4 -2 1 2 0 -7 -3 1 6 6 1 4 -10 3 1 0 1 -1 -4 -2 0 1 -0 0 -1 -2 -0 -2 -2 1 -2 3 -5 -1 0
0 -0 0 1 2 -2 -1 0 -2 -4 -2 -4 4 7 -5 -1 -1 1 1 -0 -1 1 0 1 2 0 0 -1 -3 -2 -1 -1 0 0 -1 -2 -3 0
-5 -2 0 -4 -1 -0 -2 -2 -1 -5 -8 7 3 4 4 -2 -3 -1 -3 2 0 0 0 1 0 -2 -1 -2 -1 -1 0 -0 1 0 -1 -2 0 -1
0 -2 0 -2 -1 -1 -2 0 -2 -2 -6 2 -1 8 2 -1 5 -6 -0 0 -0 0 -0 0 1 -1 -2 -1 -2 -1 0 0 2 1 -2 -1 2 2
-1 -1 -2 -4 -4 -3 -1 -2 -1 1 -3 -4 4 1 6 -2 3 -2 -2 -2 3 4 0 -3 -1 -1 -1 -0 -2 -2 -0 0 3 2 -1 -3 -2 0
-2 -3 -2 -3 -4 -2 -2 2 0 1 -1 -3 1 3 3 1 -2 5 -2 -3 -2 4 2 -1 -2 -1 -0 0 -1 2 0 0 1 2 1 -0 -1 -1
-2 -1 -1 -2 -3 -0 -1 1 1 -1 0 -2 -1 2 4 2 -2 3 1 -1 1 1 2 -3 -3 1 2 2 2 -1 -1 1 1 1 1 -1 -1 -2
-1 -2 -1 -1 -2 -0 0 -1 -1 -0 2 -1 -0 1 4 3 -5 0 2 -2 -9 0 -1 -0 0 2 1 -2 -0 -2 -1 -0 1 2 1 1 0 -0
-1 -1 -0 -1 -1 -1 -0 -1 -0 -1 1 -3 0 0 1 6 -6 -1 3 1 5 4 -1 2 1 4 0 -0 -2 -1 -0 -0 -0 -0 -0 1 -0 -0
-2 -1 -1 1 -2 -1 0 -0 -0 -0 -2 -1 2 -5 2 -2 -6 4 1 1 -3 -2 2 -1 1 3 2 -0 -1 0 -1 -0 -0 0 -1 -0 0 1
-2 1 -4 -6 -4 -4 -0 -1 -0 0 -2 -3 -4 -2 -3 -7 -1 -4 -1 0 0 5 2 2 4 1 -2 1 -1 -1 -2 0 -0 1 -1 -0 -0 1
-9 -7 -10 -5 -8 -1 3 6 5 -1 -3 -2 -2 -3 -5 0 -3 6 -3 2 1 -2 2 -3 1 -1 -3 2 -0 -1 -1 1 -1 0 1 1 1 0
-7 -2 2 0 -2 -2 4 6 15 15 9 3 1 -1 1 2 5 2 5 4 3 2 4 5 4 -0 -2 3 1 -1 -1 -0 0 -1 -1 -0 -0 -0
-7 -6 2 2 -5 -4 -5 6 3 12 14 7 3 1 1 2 -0 1 1 5 6 9 6 3 3 3 1 1 -1 0 -1 -0 -1 -1 -0 0 -0 -0
0 -2 0 3 3 2 -5 -8 -1 -0 9 25 24 16 9 4 -0 -4 3 7 14 2 5 4 4 2 -1 0 -2 0 0 -1 -2 -1 1 -1 -1 1
-2 -5 -1 0 3 3 3 2 -2 -5 -0 -2 0 8 22 13 8 9 -4 1 7 8 0 -2 0 -1 -4 0 -2 -0 -2 -1 -2 -1 1 1 0 1
-1 -2 -4 -3 -1 -2 3 0 -2 -3 -2 -0 -1 -0 3 2 2 4 9 6 5 5 2 -0 0 -0 -0 -1 -2 0 1 1 -0 2 1 -1 1 0
2 2 -0 -0 0 -2 -8 -3 2 5 2 2 2 -0 0 -1 -1 -1 -1 -1 -2 -2 -3 -1 -1 -1 -2 -2 -1 -1 1 -1 0 -1 -1 1 -0 -1
1 2 3 6 4 -1 0 0 -5 -4 -5 -4 2 -0 -2 -2 -0 0 -1 -2 -2 -2 -3 -3 -2 -3 -1 1 -2 1 -3 -2 0 -1 -1 1 -2 -4
3 4 2 4 4 4 3 5 3 -0 -4 -1 0 -2 -2 -2 -2 -2 -1 -0 0 1 0 0 0 2 2 -1 1 -1 -5 0 0 1 -1 2 2 -3
1 2 3 2 1 3 4 5 3 3 5 6 0 -1 2 1 1 2 3 2 2 3 1 0 1 2 1 1 1 -4 2 -0 -0 -1 -0 1 0 1
-1 -3 -2 -1 1 2 1 1 2 4 4 1 3 2 2 1 2 1 1 1 1 1 2 0 0 2 2 1 -1 -2 1 -0 -1 -1 -0 -1 -1 2
-1 0 -1 -1 -1 -1 -1 -0 3 2 1 2 2 0 3 2 2 1 2 3 1 1 0 -1 1 2 -0 0 -1 -1 1 1 0 2 -1 1 1 -0
Height
5542 5537 5533 5529 5525 5523 5523 5523 5524 5528 5533 5540 5546 5550 5554 5557 5567 5575 5583 5592 5600 5608 5617 5625 5633 5639 5645 5652 5658 5665 5672 5679 5686 5692 5699 5704 5711 5717
5520 5515 5510 5505 5502 5498 5496 5496 5496 5499 5506 5512 5520 5527 5531 5537 5544 5555 5564 5574 5584 5592 5601 5611 5619 5626 5632 5638 5645 5652 5659 5666 5673 5680 5687 5692 5700 5706
5501 5495 5488 5482 5478 5474 5471 5469 5470 5471 5476 5486 5492 5500 5509 5515 5522 5532 5543 5555 5566 5576 5585 5595 5604 5612 5619 5626 5633 5640 5647 5654 5661 5668 5675 5681 5688 5695
5481 5474 5466 5459 5454 5450 5446 5445 5445 5446 5450 5459 5465 5474 5482 5491 5501 5509 5523 5535 5547 5558 5569 5579 5588 5597 5605 5612 5620 5628 5635 5642 5649 5656 5663 5669 5676 5683
5463 5454 5445 5438 5432 5426 5423 5421 5421 5423 5427 5434 5442 5450 5459 5466 5477 5488 5502 5516 5530 5542 5552 5563 5574 5582 5591 5599 5607 5615 5623 5630 5637 5645 5652 5658 5664 5671
5445 5436 5426 5418 5411 5404 5401 5400 5400 5403 5406 5412 5420 5428 5437 5445 5456 5470 5481 5495 5511 5524 5536 5547 5559 5569 5579 5587 5595 5604 5611 5619 5626 5634 5641 5648 5654 5660
5430 5418 5408 5400 5392 5387 5384 5383 5383 5386 5389 5394 5402 5409 5418 5428 5438 5450 5463 5476 5492 5506 5520 5532 5546 5557 5568 5576 5585 5593 5600 5607 5615 5622 5630 5637 5644 5649
5416 5403 5393 5385 5378 5373 5371 5370 5371 5373 5375 5380 5387 5395 5404 5413 5421 5435 5447 5459 5478 5494 5507 5521 5532 5544 5555 5564 5573 5581 5589 5597 5604 5611 5619 5627 5633 5639
5406 5394 5383 5374 5367 5364 5362 5362 5363 5364 5367 5370 5377 5384 5392 5400 5410 5423 5435 5448 5465 5479 5493 5507 5519 5531 5542 5552 5561 5570 5579 5586 5593 5599 5607 5615 5622 5629
5400 5389 5380 5370 5362 5360 5359 5359 5358 5359 5361 5364 5368 5372 5379 5387 5400 5413 5425 5439 5453 5467 5482 5495 5508 5520 5530 5540 5550 5559 5568 5576 5583 5589 5596 5604 5612 5619
5401 5392 5385 5377 5371 5367 5364 5361 5359 5358 5359 5360 5363 5367 5374 5385 5397 5408 5421 5434 5449 5463 5475 5487 5499 5510 5520 5530 5540 5549 5557 5566 5573 5579 5586 5593 5601 5608
5411 5403 5397 5390 5383 5376 5372 5369 5365 5362 5361 5362 5363 5369 5377 5387 5398 5409 5419 5433 5446 5458 5471 5482 5493 5503 5512 5522 5531 5539 5547 5556 5563 5569 5575 5582 5590 5598
5421 5415 5408 5401 5395 5389 5383 5379 5376 5374 5373 5371 5373 5378 5385 5393 5402 5410 5421 5434 5447 5459 5470 5479 5487 5496 5505 5515 5522 5530 5538 5546 5553 5559 5565 5573 5581 5589
5428 5422 5417 5412 5407 5402 5397 5392 5389 5388 5388 5389 5389 5391 5395 5401 5407 5415 5425 5437 5449 5459 5467 5476 5484 5492 5500 5508 5514 5522 5530 5537 5544 5551 5557 5565 5573 5581
5434 5430 5425 5421 5416 5413 5410 5406 5403 5401 5400 5401 5402 5402 5407 5411 5416 5422 5431 5440 5449 5455 5464 5472 5480 5486 5493 5500 5506 5514 5522 5529 5536 5542 5549 5558 5565 5572
5441 5436 5433 5430 5426 5423 5420 5418 5416 5414 5414 5413 5413 5414 5417 5422 5426 5431 5437 5444 5451 5456 5462 5469 5476 5482 5488 5494 5500 5507 5513 5521 5527 5533 5541 5549 5556 5563
5446 5443 5439 5436 5433 5432 5429 5427 5425 5424 5424 5425 5425 5425 5427 5430 5434 5438 5443 5447 5451 5455 5460 5465 5471 5476 5481 5486 5493 5499 5506 5512 5518 5525 5532 5539 5546 5553
5454 5449 5444 5440 5435 5432 5432 5432 5431 5429 5429 5429 5430 5431 5432 5434 5436 5439 5442 5446 5449 5452 5456 5460 5464 5469 5474 5480 5485 5491 5498 5503 5510 5515 5522 5530 5537 5544
5463 5457 5451 5446 5441 5437 5434 5431 5430 5430 5430 5430 5430 5431 5431 5433 5434 5436 5438 5441 5444 5447 5450 5454 5458 5462 5468 5473 5478 5484 5489 5494 5500 5507 5514 5521 5527 5533
5469 5462 5457 5451 5446 5442 5438 5435 5432 5429 5427 5427 5427 5428 5429 5430 5431 5432 5434 5435 5438 5440 5443 5446 5450 5456 5461 5466 5472 5476 5480 5487 5493 5500 5507 5514 5520 5524
5472 5465 5459 5453 5449 5444 5439 5435 5432 5429 5428 5427 5426 5424 5424 5425 5426 5427 5429 5430 5432 5434 5436 5440 5445 5450 5454 5459 5464 5467 5473 5479 5486 5493 5499 5506 5511 5516
5472 5465 5459 5453 5447 5442 5438 5434 5429 5426 5424 5421 5420 5419 5419 5419 5419 5420 5422 5423 5425 5427 5429 5434 5439 5443 5447 5451 5455 5459 5467 5473 5479 5485 5492 5497 5503 5507
5469 5462 5456 5450 5444 5438 5432 5428 5424 5421 5418 5415 5414 5412 5411 5410 5410 5411 5412 5414 5417 5420 5422 5427 5431 5435 5439 5443 5447 5453 5460 5466 5472 5478 5484 5489 5493 5497